Flag for Germany Weather past 2 weeks in Dortmund, North Rhine-Westphalia, Germany

Now
51 °F

Overcast.


Feels Like: 49 °F
Forecast: 43 / 62 °F
Wind: 5 mph from Northwest

Location: Duesseldorf

Current Time: May 26, 2015 at 3:54:34 AM

Latest Report: May 26, 2015 at 3:00 AM


Visibility: 25 mi

Pressure: 30.06 "Hg

Humidity: 73%

Dew point: 42 °F

Location of DortmundLocation

Historic Weather in Dortmund — Graph

°F

Dortmund temperature yesterday

Maximum temperature yesterday: 61 °F (at 5:00 PM)
Minimum temperature yesterday: 47 °F (at 2:00 AM)
Average temperature yesterday: 54 °F

Past Weeks' High & Low Weather Summary

 TemperatureHumidityPressure
High78 °F (May 11, 6:00 PM)99% (May 17, 2:00 AM)30.34 "Hg (May 17, 2:00 AM)
Low38 °F (May 21, 4:00 AM)36% (May 13, 4:00 PM)29.65 "Hg (May 18, 8:00 PM)
Average56 °F66%30.07 "Hg
* Reported May 11 3:00 AM — May 26 3:00 AM, Dortmund, Weather by CustomWeather, © 2015

Note: Actual official high and low records may vary slightly from our data, if they occured in-between our weather recording intervals... More about our weather records

Advertising

Dortmund weather history for previous 24 hours

 ConditionsComfort  
Time TempWeatherWind HumidityBarometerVisibility
3:00 AM
Tue, May 26
51 °FOvercast.5 mph73%30.06 "Hg25 mi
2:00 AM52 °FOvercast.3 mph70%30.05 "Hg25 mi
1:00 AM52 °FOvercast.5 mph69%30.04 "Hg25 mi
12:00 AM53 °FOvercast.5 mph69%30.03 "Hg22 mi
10:00 PM
Mon, May 25
56 °FOvercast.5 mph64%30.02 "Hg22 mi
9:00 PM57 °FOvercast.2 mph59%29.99 "Hg22 mi
8:00 PM59 °FPartly sunny.3 mph55%29.98 "Hg19 mi
7:00 PM59 °FOvercast.5 mph56%29.97 "Hg19 mi
6:00 PM60 °FOvercast.6 mph55%29.97 "Hg19 mi
5:00 PM61 °FPartly sunny.3 mph52%29.97 "Hg19 mi
4:00 PM60 °FPartly sunny.3 mph59%29.97 "Hg19 mi
3:00 PM59 °FScattered clouds.2 mph66%29.98 "Hg19 mi
2:00 PM56 °FOvercast.3 mph72%29.99 "Hg16 mi
1:00 PM54 °FOvercast.3 mph77%30.00 "Hg16 mi
12:00 PM52 °FLow clouds.5 mph89%29.99 "Hg8 mi
10:00 AM53 °FRain. Low clouds.3 mph93%30.00 "Hg2 mi
9:00 AM53 °FRain. Overcast.2 mph88%30.01 "Hg4 mi
8:00 AM53 °FOvercast.1 mph85%30.00 "Hg12 mi
7:00 AM52 °FOvercast.2 mph86%30.01 "Hg12 mi
6:00 AM51 °FLight rain. Overcast.1 mph88%30.01 "Hg16 mi
4:00 AM50 °FOvercast.1 mph85%30.01 "Hg25 mi
3:00 AM48 °FPassing clouds.1 mph82%30.02 "Hg25 mi
Weather by CustomWeather, © 2015

See weather overviewHow to use our weather pages